Regional Weather Roundup
Issued by NWS

Home | Current Version | Previous Version | Graphics & Text | Print | Product List | Glossary Off
Versions: 1 2 3 4 5 6 7 8 9 10 11 12 13 14 15 16 17 18 19 20 21 22 23 24 25 26 27 28 29 30 31 32 33 34 35 36 37 38 39 40 41 42 43 44 45 46 47 48 49 50

907
ASUS43 KTOP 110059
RWRKS

WEATHER ROUNDUP FOR KANSAS
NATIONAL WEATHER SERVICE GOODLAND KS
700 PM CST SAT DEC 10 2016

NOTE:  "FAIR" INDICATES FEW OR NO CLOUDS BELOW 12,000 FEET WITH NO
SIGNIFICANT WEATHER AND/OR OBSTRUCTIONS TO VISIBILITY.

KSZ001>006-013>018-027>032-041>047-110200-
NORTHWEST KANSAS

CITY           SKY/WX    TMP DP  RH WIND       PRES   REMARKS
GOODLAND       CLOUDY    31  25  78 S12       29.72F WCI  22
HAYS           CLOUDY    34  25  69 SE9       29.83F
HILL CITY      CLOUDY    33  24  69 SE6       29.81F
RUSSELL        CLOUDY    35  25  66 S14       29.83F WCI  26
$$

KSZ061>065-074>080-084>089-110200-
SOUTHWEST KANSAS

CITY           SKY/WX    TMP DP  RH WIND       PRES   REMARKS
DODGE CITY     CLOUDY    37  28  70 SE12      29.80F WCI  29
ELKHART          N/A     50  25  38 S10         N/A
GARDEN CITY    CLOUDY    37  27  67 SE12      29.75F WCI  29
GREAT BEND     CLOUDY    34  26  72 SE10      29.86F WCI  26
LIBERAL        CLOUDY    46  28  49 SE14      29.75F
$$

KSZ066>073-081>083-090>101-110200-
SOUTHEAST KANSAS

CITY           SKY/WX    TMP DP  RH WIND       PRES   REMARKS
CHANUTE        CLOUDY    41  19  41 S16       30.06F
COFFEYVILLE    CLOUDY    41  20  43 SE10      30.09F
HUTCHINSON     CLOUDY    39  26  59 SE16      29.91F WCI  30
MEDICINE LODGE   N/A     39  28  64 SE12G20   29.89F WCI  32
NEWTON         CLOUDY    36  24  62 S13       29.96F WCI  27
PARSONS        CLOUDY    42  19  39 S10       30.08F
WICHITA INTL   CLOUDY    37  24  59 SE9       29.97F
WICHITA JABRA  CLOUDY    36  24  62 SE12      29.98S WCI  28
WINFIELD       CLOUDY    38  23  55 SE13      30.01F WCI  30
$$

KSZ007>012-019>026-033>040-048>060-102>105-110200-
NORTHEAST KANSAS

CITY           SKY/WX    TMP DP  RH WIND       PRES   REMARKS
CONCORDIA      CLOUDY    35  23  61 SE8       29.92F
EMPORIA        CLOUDY    36  21  54 SE13      29.99F WCI  27
LAWRENCE       CLOUDY    35  22  58 E8        30.05F
MANHATTAN      PTCLDY    35  21  56 SE7       29.97F
OLATHE IND     CLOUDY    37  20  50 SE12      30.05F WCI  29
OLATHE EXE     CLOUDY    35  20  54 S8        30.04F
SALINA         CLOUDY    38  24  57 S12       29.92F WCI  30
TOPEKA BILLARD CLOUDY    36  21  54 SE8       30.02F
TOPEKA FORBES  CLOUDY    38  21  50 SE9       30.01F
$$




USA.gov is the U.S. government's official web portal to all federal, state and local government web resources and services.